Terminal Aerodrome Forecast
Issued by NWS

Home | Current Version | Previous Version | Text Only | Print | Product List | Glossary On
Versions: 1 2 3 4 5 6 7 8 9 10 11 12 13 14
000
FTUS44 KEPZ 020500 RRA
TAFTCS
TAF
KTCS 020541Z 0206/0306 32005KT P6SM SKC
     FM022000 19007KT P6SM FEW100
     FM030300 29005KT P6SM SKC=

USA.gov is the U.S. government's official web portal to all federal, state and local government web resources and services.